DECAYED

STARLINK-1975, 47573 (Decayed)

Orbit data source: Space-Track

STARLINK-1975, 47573 was a payload satellite owned by SpaceX/Seattle (US) in LEO that was launched on Thu, 04 Feb 2021 UTC via an FALCON 9 launch vehicle from the Air Force Eastern Test Range (AFETR). Payload-class satellites include a variety of spacecraft equipped with specific instruments for various scientific and technological missions. These include communications satellites like Starlink; space stations such as the ISS; scientific satellites like the Hubble; Earth observation satellites from companies like Planet Labs, Umbra, and HawkEye 360; GPS; miniature CubeSats for education and research; and military/defense satellites.

Not visible in the next 10 days
Identifier
47573, 2021-009AB
Orbit
Decayed
Country
Flag of USUS
Related business
Manufacturer
SpaceX/Seattle
Mission
Decayed Commercial Communications
Bus & Motor
STARLINK, Unknown motor
Mass
260 kg wet, ~248 kg dry
Launch date (UTC)
2021-02-04 (5 years ago)
Launch vehicle
FALCON 9
Launch site
Air Force Eastern Test Range (AFETR)
Object type
Payload
Rocket body
Debris
Shape & HBR
Box + 1 Pan, 10.1 m
Radar Cross Section
13.562 m², Large (>1 m²)

Expand to show TLE details & history
Last TLE update: 2 months ago

TLE from 2 months ago
0 STARLINK-1975
1 47573U 21009AB  26123.25317280  .08781088  12288-4  67574-3 0  9997
2 47573  53.0301  30.0081 0008217 244.9551 115.0643 16.39434386290514
Epoch: 2026-05-03T06:04Z
TLE epoch observation values (Epoch: 2026-05-03T06:04:34.129Z)
Latitude
Longitude
77.70652°
Altitude
170.517 km
Speed
7.804 km/s
True Right ascension
02h 00m 01s
True Declination
0° 00' 00"
Sunlit
Object was in daylight at epoch
Visualization orbit readout
Latitude
Unknown
Longitude
Unknown
Altitude
Unknown
Speed
Unknown
Apparent Right ascension
Unknown
Apparent Declination
Unknown
Sunlit
N/A
Visualization observer readout
Local Sidereal Time
21:24:48
Azimuth
Unknown
Elevation
Unknown
Doppler factor
Unknown
Orbital elements
Apogee altitude
172.976 km
Perigee altitude
162.219 km
Semi-major axis
6,545.735 km
Eccentricity
0.00082
Inclination
53.0301°
RAAN
30.0081°
Arg. of periapsis
244.9551°
True anomaly
115.14956°
Mean anomaly
115.0643°
Eccentric anomaly
115.10693°
Mean motion
4.09832 °/min
Orbital period
87.84 mins
BSTAR
0.00067574
Loading maneuver chart data...
Computing Atmospheric mass density...

Documentation

Showing up to 5 results
|